sat.trackr.live / text

‹ back to catalog

STARLINK-4561

NORAD 53563 · 2022-101AN

PAYLOAD ACTIVE UNKNOWN

§ Identity

Operator
Country
US
Launch date
2022-08-19
Launch site
AFETR
Launch vehicle
Mass (kg)
RCS (m²)

Purposes: comms

External: N2YO · Heavens-Above · Gunter

§ Orbital elements

Epoch: 2026-09-19T23:34:13.986912Z

Period
93.85 min
Inclination
53.1585°
Eccentricity
0.0001237
Mean motion
15.34392642 rev/d
Perigee alt
461.9 km
Apogee alt
463.6 km
Semi-major
6,840.9 km
B*
3.7704e-5
RAAN
246.0332°
Arg perigee
90.1048°
Mean anomaly
270.0096°
Rev number
22,599

§ Raw data

STARLINK-45611 53563U 22101AN  26262.98210633  .00000898  00000+0  37704-4 0  99972 53563  53.1585 246.0332 0001237  90.1048 270.0096 15.34392642225996

JSON: /api/v1/satellites/53563 · /tle

For live sub-satellite position, see the globe view (requires WebGL).

§ Visibility from observer

Set your observer location to see the next 7 days of passes ≥ 10°. The values pass through the URL so the page stays shareable.

No JS? Fill the form by hand. The geolocation button needs JavaScript.